IRIDIUM 80 [P]

Last updated on Fri Jul 20 2018 00:20:25 GMT+0000 (Coordinated Universal Time)

1 25469U 98051C 18200.86578978 .01680903 -99369-6 81049-3 0 9993 2 25469 86.3786 215.4192 0369765 341.5556 17.2578 15.51849318 39888

Satellite not in orbit